Weather History for Billings, MT

Change the Weather History Date:

Friday, April 26, 2013

  Actual Average Record
Temperature  
Mean Temperature 60 °F 49 °F  
Max Temperature 73 °F 61 °F 85 °F (1946)
Min Temperature 46 °F 38 °F 23 °F (1994)
Degree Days  
Heating Degree Days 5 16  
Month to date heating degree days 643 507  
Since 1 July heating degree days 6046 6317  
Cooling Degree Days 0 0  
Month to date cooling degree days 0 0  
Year to date cooling degree days 0 0  
Growing Degree Days 10 (Base 50)    
Moisture  
Dew Point 26 °F    
Average Humidity 32    
Maximum Humidity 49    
Minimum Humidity 14    
Precipitation  
Precipitation 0.00 in 0.06 in 0.85 in (1986)
Month to date precipitation 1.02 1.40  
Year to date precipitation 2.16 3.42  
Snow  
Snow 0.00 in 0.20 in 5.60 in (1986)
Month to date snowfall 5.6 7.5  
Since 1 July snowfall 40.4 52.2  
Snow Depth 0.00 in    
Sea Level Pressure  
Sea Level Pressure 30.02 in    
Wind  
Wind Speed 11 mph (WSW)    
Max Wind Speed 22 mph    
Max Gust Speed 28 mph    
Visibility 10 miles    
Events      
T = Trace of Precipitation, MM = Missing Value Source: NWS Daily Summary

Daily Weather History Graph

Daily Weather History Graph

Search for Another Location

Airport:

Trip Planner

Search our weather history database for the weather conditions in past years. The results will help you decide how hot, cold, wet, or windy it might be!

Date:

Astronomy

Apr. 26, 2013 Rise Set
Actual Time 6:08 AM MDT 8:15 PM MDT
Civil Twilight 5:36 AM MDT 8:48 PM MDT
Nautical Twilight 4:56 AM MDT 9:28 PM MDT
Astronomical Twilight 4:12 AM MDT 10:12 PM MDT
Moon 9:46 PM MDT (4/26) 6:36 AM MDT (4/26)
Length of Visible Light 15h 11m
Length of Day
14h 06m
Full, 99% of the Moon is Illuminated
Apr 26
Full
May 2
Last Quarter
May 9
New
May 17
First Quarter
May 24
Full

Hourly Weather History & Observations

Time (MDT) Temp. Windchill Dew Point Humidity Pressure Visibility Wind Dir Wind Speed Gust Speed Precip Events Conditions
12:53 AM 50.0 °F - 26.6 °F 40% 29.99 in 10.0 mi NW 10.4 mph - N/A   Mostly Cloudy
1:53 AM 48.9 °F - 27.0 °F 43% 29.97 in 10.0 mi SW 8.1 mph - N/A   Mostly Cloudy
2:53 AM 46.9 °F - 28.0 °F 48% 29.99 in 10.0 mi SW 6.9 mph - N/A   Mostly Cloudy
3:53 AM 46.0 °F 41.4 °F 28.0 °F 50% 30.00 in 10.0 mi SW 9.2 mph - N/A   Scattered Clouds
4:53 AM 48.9 °F - 26.1 °F 41% 30.01 in 10.0 mi SW 12.7 mph - N/A   Partly Cloudy
5:53 AM 48.0 °F - 26.1 °F 42% 30.04 in 10.0 mi SW 12.7 mph - N/A   Partly Cloudy
6:53 AM 46.9 °F - 27.0 °F 46% 30.06 in 10.0 mi SW 9.2 mph - N/A   Partly Cloudy
7:53 AM 48.0 °F - 28.0 °F 46% 30.09 in 10.0 mi SW 10.4 mph - N/A   Clear
8:53 AM 54.0 °F - 28.9 °F 38% 30.11 in 10.0 mi SW 11.5 mph - N/A   Clear
9:53 AM 59.0 °F - 30.9 °F 35% 30.10 in 10.0 mi WSW 8.1 mph - N/A   Clear
10:53 AM 63.0 °F - 27.0 °F 26% 30.09 in 10.0 mi Variable 5.8 mph - N/A   Clear
11:53 AM 66.0 °F - 25.0 °F 21% 30.06 in 10.0 mi WSW 12.7 mph 21.9 mph N/A   Clear
12:53 PM 69.1 °F - 25.0 °F 19% 30.04 in 10.0 mi WNW 15.0 mph 25.3 mph N/A   Clear
1:53 PM 70.0 °F - 26.1 °F 19% 30.02 in 10.0 mi WSW 16.1 mph 23.0 mph N/A   Clear
2:53 PM 71.1 °F - 26.1 °F 19% 30.01 in 10.0 mi South 8.1 mph 25.3 mph N/A   Clear
3:53 PM 71.1 °F - 26.1 °F 19% 29.99 in 10.0 mi SW 12.7 mph - N/A   Clear
4:53 PM 72.0 °F - 26.1 °F 18% 29.97 in 10.0 mi SW 10.4 mph 17.3 mph N/A   Clear
5:53 PM 73.0 °F - 25.0 °F 17% 29.97 in 10.0 mi WSW 11.5 mph - N/A   Clear
6:53 PM 73.0 °F - 21.0 °F 14% 29.96 in 10.0 mi West 10.4 mph - N/A   Clear
7:53 PM 68.0 °F - 21.0 °F 17% 29.98 in 10.0 mi West 13.8 mph - N/A   Clear
8:53 PM 62.1 °F - 23.0 °F 22% 30.00 in 10.0 mi WNW 11.5 mph - N/A   Clear
9:53 PM 60.1 °F - 23.0 °F 24% 30.00 in 10.0 mi West 12.7 mph - N/A   Clear
10:53 PM 59.0 °F - 24.1 °F 26% 30.01 in 10.0 mi SW 8.1 mph - N/A   Clear
11:53 PM 55.9 °F - 25.0 °F 30% 30.02 in 10.0 mi SW 12.7 mph - N/A   Clear